CW8931 Weather Reports


time (UTC)temp
C
wind
direction
speed
KPH
gust
KPH
rain 1hr
cm
rain 24hr
cm
rain mn
cm
humidity
%
barometer
mb
20260510043010 23 0.0 0.0 0.00 0.00 0.00 76 1011.4
20260510042010 23 0.0 0.0 0.00 0.00 0.00 75 1011.6
20260510041009 23 0.0 0.0 0.00 0.00 0.00 75 1011.6
20260510040511 23 0.0 0.0 0.00 0.00 0.00 74 1011.4
20260510040022 23 0.0 0.0 0.00 0.00 0.00 74 1011.5
20260510034003 23 0.0 0.0 0.00 0.00 0.00 74 1011.6
20260510033511 23 0.0 0.0 0.00 0.00 0.00 74 1011.7
20260510032010 23 0.0 0.0 0.00 0.00 0.00 74 1011.5
20260510031534 23 0.0 0.0 0.00 0.00 0.00 74 1011.3
20260510030507 24 0.0 0.0 0.00 0.00 0.00 74 1011.2
20260510030017 24 0.0 0.0 0.00 0.00 0.00 74 1011.1
20260510025509 24 0.0 0.0 0.00 0.00 0.00 74 1010.9
20260510025008 24 0.0 0.0 0.00 0.00 0.00 72 1010.7
20260510024528 24 0.0 0.0 0.00 0.00 0.00 71 1010.4
20260510024010 25 0.0 0.0 0.00 0.00 0.00 70 1010.3
20260510023009 25 0.0 0.0 0.00 0.00 0.00 68 1010.2
20260510022509 25 0.0 0.0 0.00 0.00 0.00 66 1010.1
20260510022009 25 0.0 0.0 0.00 0.00 0.00 66 1009.9
20260510021513 25 0.0 0.0 0.00 0.00 0.00 65 1009.6
20260510014526 25 0.0 0.0 0.00 0.00 0.00 63 1008.9
20260510014008 25 0.0 0.0 0.00 0.00 0.00 63 1008.9
20260510013516 25 0.0 0.0 0.00 0.00 0.00 63 1008.9
20260510013024 25 0.0 0.0 0.00 0.00 0.00 63 1008.9
20260510012510 25 0.0 0.0 0.00 0.00 0.00 64 1008.9
20260510011510 25 0.0 0.0 0.00 0.00 0.00 63 1008.8
20260510011007 25 0.0 0.0 0.00 0.00 0.00 64 1008.7
20260510010504 25 0.0 0.0 0.00 0.00 0.00 63 1008.7
20260510010015 25 0.0 0.0 0.00 0.00 0.00 61 1008.8
20260510004527 24 0.0 0.0 0.00 0.00 0.00 62 1008.5
20260510003027 24 0.0 0.0 0.00 0.00 0.00 62 1008.8
20260510002509 24 0.0 0.0 0.00 0.00 0.00 63 1008.8
20260510002010 24 0.0 0.0 0.00 0.00 0.00 63 1008.7
20260510001524 25 0.0 0.0 0.00 0.00 0.00 62 1008.8
20260510001012 25 0.0 0.0 0.00 0.00 0.00 61 1008.7
20260510000012 25 0.0 0.0 0.00 0.00 0.00 60 1008.7
20260509234009 29 0.0 0.0 0.00 0.00 0.00 52 1008.2
20260509231010 31 0.0 0.0 0.00 0.00 0.00 56 1008.0
20260509230509 32 0.0 0.0 0.00 0.00 0.00 56 1008.0
20260509230026 32 0.0 0.0 0.00 0.00 0.00 55 1007.8
20260509225511 32 0.0 0.0 0.00 0.00 0.00 54 1007.7
20260509224517 32 0.0 0.0 0.00 0.00 0.00 54 1007.7
20260509224008 32 0.0 0.0 0.00 0.00 0.00 57 1007.7
20260509223508 32 0.0 0.0 0.00 0.00 0.00 56 1007.7
20260509223022 32 0.0 0.0 0.00 0.00 0.00 55 1007.8
20260509222509 32 0.0 0.0 0.00 0.00 0.00 54 1007.7
20260509222009 32 0.0 0.0 0.00 0.00 0.00 55 1007.7
20260509221524 32 0.0 0.0 0.00 0.00 0.00 54 1007.5
20260509221012 32 0.0 0.0 0.00 0.00 0.00 53 1007.5
20260509220509 32 0.0 0.0 0.00 0.00 0.00 53 1007.6
20260509220028 32 0.0 0.0 0.00 0.00 0.00 54 1007.6
20260509215508 32 0.0 0.0 0.00 0.00 0.00 56 1007.6
20260509215012 32 0.0 0.0 0.00 0.00 0.00 57 1007.6
20260509214528 32 0.0 0.0 0.00 0.00 0.00 57 1007.5
20260509214012 32 0.0 0.0 0.00 0.00 0.00 56 1007.6
20260509213519 32 0.0 0.0 0.00 0.00 0.00 56 1007.8
20260509213015 32 0.0 0.0 0.00 0.00 0.00 54 1007.7
20260509211521 32 0.0 0.0 0.00 0.00 0.00 56 1007.8
20260509211007 32 0.0 0.0 0.00 0.00 0.00 58 1007.8
20260509210509 32 0.0 0.0 0.00 0.00 0.00 57 1007.8
20260509210026 32 0.0 0.0 0.00 0.00 0.00 58 1007.9
20260509205510 32 0.0 0.0 0.00 0.00 0.00 58 1008.0
20260509204509 32 0.0 0.0 0.00 0.00 0.00 59 1008.2
20260509204009 32 0.0 0.0 0.00 0.00 0.00 58 1008.3
20260509203504 32 0.0 0.0 0.00 0.00 0.00 59 1008.4
20260509202503 32 0.0 0.0 0.00 0.00 0.00 59 1008.5
20260509201521 32 0.0 0.0 0.00 0.00 0.00 59 1008.6
20260509200020 32 0.0 0.0 0.00 0.00 0.00 60 1008.7
20260509195005 32 0.0 0.0 0.00 0.00 0.00 61 1008.8
20260509193504 32 0.0 0.0 0.00 0.00 0.00 60 1008.8
20260509192007 32 0.0 0.0 0.00 0.00 0.00 58 1009.1
20260509191009 32 0.0 0.0 0.00 0.00 0.00 58 1009.1
20260509185507 32 0.0 0.0 0.00 0.00 0.00 59 1009.2
20260509184532 31 0.0 0.0 0.00 0.00 0.00 61 1009.1
20260509184003 31 0.0 0.0 0.00 0.00 0.00 62 1009.3
20260509182005 31 0.0 0.0 0.00 0.00 0.00 63 1009.6
20260509181007 30 0.0 0.0 0.00 0.00 0.00 64 1009.8
20260509180021 30 0.0 0.0 0.00 0.00 0.00 65 1009.9
20260509174521 29 0.0 0.0 0.00 0.03 0.00 67 1010.3
20260509173515 29 0.0 0.0 0.00 0.03 0.00 68 1010.3
20260509173029 29 0.0 0.0 0.00 0.03 0.00 68 1010.3
20260509172504 29 0.0 0.0 0.00 0.03 0.00 71 1010.4
20260509172004 28 0.0 0.0 0.00 0.03 0.00 72 1010.5
20260509171533 28 0.0 0.0 0.00 0.03 0.00 74 1010.3
20260509171011 27 0.0 0.0 0.00 0.03 0.00 76 1010.4
20260509170506 27 0.0 0.0 0.00 0.03 0.00 77 1010.5
20260509165507 26 0.0 0.0 0.00 0.03 0.00 79 1010.7
20260509165007 26 0.0 0.0 0.00 0.03 0.00 79 1010.7
20260509164522 26 0.0 0.0 0.00 0.03 0.00 79 1010.7
20260509164011 26 0.0 0.0 0.00 0.03 0.00 80 1010.7
20260509163510 26 0.0 0.0 0.00 0.03 0.00 81 1010.7
20260509163049 26 0.0 0.0 0.00 0.03 0.00 82 1010.7
20260509162008 25 0.0 0.0 0.00 0.03 0.00 82 1010.7
20260509161532 25 0.0 0.0 0.00 0.03 0.00 83 1010.7
20260509161015 25 0.0 0.0 0.00 0.03 0.00 83 1010.8
20260509160505 25 0.0 0.0 0.00 0.03 0.00 83 1010.8
20260509160012 25 0.0 0.0 0.00 0.03 0.00 84 1010.6
20260509155506 25 0.0 0.0 0.00 0.03 0.00 84 1010.7
20260509155008 25 0.0 0.0 0.00 0.03 0.00 84 1010.8
20260509154522 25 0.0 0.0 0.00 0.03 0.00 84 1010.9
20260509153028 25 0.0 0.0 0.00 0.03 0.00 85 1010.8
20260509152509 25 0.0 0.0 0.00 0.03 0.00 86 1010.6
20260509152012 25 0.0 0.0 0.00 0.03 0.00 86 1010.5
20260509151007 25 0.0 0.0 0.00 0.03 0.00 87 1010.6
20260509150512 24 0.0 0.0 0.00 0.03 0.00 87 1010.4
20260509150026 24 0.0 0.0 0.00 0.03 0.00 88 1010.3
20260509145509 24 0.0 0.0 0.00 0.03 0.00 88 1010.3
20260509145011 24 0.0 0.0 0.00 0.03 0.00 89 1010.2
20260509144518 24 0.0 0.0 0.00 0.03 0.00 89 1010.2
20260509144008 23 0.0 0.0 0.00 0.03 0.00 89 1010.1
20260509143511 23 0.0 0.0 0.00 0.03 0.00 89 1009.8
20260509143026 23 0.0 0.0 0.00 0.03 0.00 89 1009.9
20260509142508 23 0.0 0.0 0.00 0.03 0.00 89 1009.8
20260509142011 23 0.0 0.0 0.00 0.03 0.00 89 1009.6
20260509140027 23 0.0 0.0 0.00 0.03 0.00 90 1009.5
20260509135509 23 0.0 0.0 0.00 0.03 0.00 90 1009.6
20260509135004 23 0.0 0.0 0.00 0.03 0.00 90 1009.7
20260509134509 23 0.0 0.0 0.00 0.03 0.00 90 1009.9
20260509134004 23 0.0 0.0 0.00 0.03 0.00 90 1010.1
20260509133506 23 0.0 0.0 0.00 0.03 0.00 90 1010.5
20260509133006 23 0.0 0.0 0.00 0.03 0.00 90 1010.6
20260509132505 23 0.0 0.0 0.00 0.03 0.00 90 1010.4
20260509132005 23 0.0 0.0 0.00 0.03 0.00 90 1010.5
20260509131503 23 0.0 0.0 0.00 0.03 0.00 90 1010.8
20260509131005 23 0.0 0.0 0.00 0.03 0.00 91 1010.9
20260509130506 23 0.0 0.0 0.00 0.03 0.00 91 1010.8
20260509130008 23 0.0 0.0 0.00 0.03 0.00 90 1010.6
20260509125509 23 0.0 0.0 0.00 0.03 0.00 90 1010.8
20260509125006 23 0.0 0.0 0.00 0.03 0.00 90 1010.9
20260509124507 23 0.0 0.0 0.00 0.03 0.00 90 1010.8
20260509124005 23 0.0 0.0 0.00 0.03 0.00 90 1010.2
20260509123503 23 0.0 0.0 0.00 0.03 0.00 90 1010.2
20260509123010 23 0.0 0.0 0.00 0.03 0.00 90 1010.4
20260509122504 23 0.0 0.0 0.00 0.03 0.00 90 1010.7
20260509122007 23 0.0 0.0 0.00 0.03 0.00 90 1010.7
20260509121508 23 0.0 0.0 0.00 0.03 0.00 90 1010.6
20260509121005 23 0.0 0.0 0.00 0.03 0.00 90 1010.6
20260509120505 23 0.0 0.0 0.00 0.03 0.00 90 1010.7
20260509120004 23 0.0 0.0 0.00 0.03 0.00 90 1010.7
20260509115504 23 0.0 0.0 0.00 0.03 0.00 90 1010.4
20260509115004 23 0.0 0.0 0.00 0.03 0.00 90 1010.4
20260509114519 23 0.0 0.0 0.00 0.03 0.00 90 1010.4
20260509114006 23 0.0 0.0 0.00 0.03 0.00 90 1010.4
20260509113505 23 0.0 0.0 0.00 0.03 0.00 90 1010.4
20260509113014 23 0.0 0.0 0.00 0.03 0.00 90 1010.4
20260509112505 23 0.0 0.0 0.00 0.03 0.00 90 1010.5
20260509112014 23 0.0 0.0 0.00 0.03 0.00 90 1010.3
20260509111513 23 0.0 0.0 0.00 0.03 0.00 90 1010.3
20260509111007 23 0.0 0.0 0.00 0.03 0.00 90 1010.1
20260509110509 23 0.0 0.0 0.00 0.03 0.00 90 1009.9
20260509110014 23 0.0 0.0 0.00 0.03 0.00 90 1009.8
20260509105504 23 0.0 0.0 0.00 0.03 0.00 90 1009.8
20260509105009 23 0.0 0.0 0.00 0.03 0.00 90 1009.9
20260509104505 23 0.0 0.0 0.00 0.03 0.00 90 1009.8
20260509104007 23 0.0 0.0 0.00 0.03 0.00 90 1009.8
20260509103504 23 0.0 0.0 0.00 0.03 0.00 90 1009.7
20260509103008 23 0.0 0.0 0.00 0.03 0.00 90 1009.6
20260509102506 23 0.0 0.0 0.00 0.03 0.00 90 1009.6
20260509102006 23 0.0 0.0 0.00 0.03 0.00 90 1009.6
20260509101514 23 0.0 0.0 0.00 0.03 0.00 90 1009.8
20260509101006 23 0.0 0.0 0.00 0.03 0.00 90 1009.8
20260509100506 23 0.0 0.0 0.00 0.03 0.00 90 1009.8
20260509100016 23 0.0 0.0 0.00 0.03 0.00 90 1009.7
20260509095510 23 0.0 0.0 0.00 0.03 0.00 90 1009.6
20260509095010 23 0.0 0.0 0.00 0.03 0.00 90 1009.5
20260509094522 23 0.0 0.0 0.00 0.03 0.00 90 1009.4
20260509094009 23 0.0 0.0 0.00 0.03 0.00 90 1009.4
20260509093505 23 0.0 0.0 0.00 0.03 0.00 90 1009.4
20260509093015 23 0.0 0.0 0.00 0.03 0.00 90 1009.3
20260509092505 23 0.0 0.0 0.00 0.03 0.00 90 1009.4
20260509092005 23 0.0 0.0 0.00 0.03 0.00 90 1009.3
20260509091511 23 0.0 0.0 0.00 0.03 0.00 90 1009.4
20260509091006 23 0.0 0.0 0.00 0.03 0.00 90 1009.7
20260509090506 23 0.0 0.0 0.00 0.03 0.00 90 1009.8
20260509090041 23 0.0 0.0 0.00 0.03 0.00 90 1009.8
20260509085505 23 0.0 0.0 0.00 0.03 0.00 90 1009.8
20260509085007 23 0.0 0.0 0.00 0.03 0.00 90 1009.9
20260509084521 23 0.0 0.0 0.00 0.03 0.00 90 1009.9
20260509084010 23 0.0 0.0 0.00 0.03 0.00 90 1009.9
20260509083505 23 0.0 0.0 0.00 0.03 0.00 90 1009.8
20260509083038 23 0.0 0.0 0.00 0.03 0.00 90 1009.8
20260509081009 23 0.0 0.0 0.00 0.03 0.00 90 1009.7
20260509080506 23 0.0 0.0 0.00 0.03 0.00 90 1009.6
20260509080015 23 0.0 0.0 0.00 0.03 0.00 90 1009.5
20260509075505 23 0.0 0.0 0.00 0.03 0.00 90 1009.6
20260509075008 23 0.0 0.0 0.00 0.03 0.00 89 1009.6
20260509074529 23 0.0 0.0 0.00 0.03 0.00 89 1009.6
20260509074009 23 0.0 0.0 0.00 0.03 0.00 89 1009.6
20260509073509 23 0.0 0.0 0.00 0.03 0.00 89 1009.4
20260509073019 23 0.0 0.0 0.00 0.03 0.00 89 1009.3
20260509072514 23 0.0 0.0 0.00 0.03 0.00 89 1009.3
20260509072010 23 0.0 0.0 0.00 0.03 0.00 89 1009.5
20260509065509 23 0.0 0.0 0.00 0.03 0.00 89 1009.8
20260509065006 23 0.0 0.0 0.00 0.03 0.00 89 1009.9
20260509064516 23 0.0 0.0 0.00 0.03 0.00 89 1010.0
20260509064014 23 0.0 0.0 0.00 0.03 0.00 89 1010.0
20260509063509 23 0.0 0.0 0.00 0.03 0.00 89 1010.1
20260509063018 23 0.0 0.0 0.00 0.03 0.00 89 1010.1
20260509062510 23 0.0 0.0 0.00 0.03 0.00 89 1010.1
20260509062011 23 0.0 0.0 0.00 0.03 0.00 89 1010.1
20260509061521 23 0.0 0.0 0.00 0.03 0.00 89 1010.2
20260509061004 23 0.0 0.0 0.00 0.03 0.00 88 1010.3
20260509060510 23 0.0 0.0 0.00 0.03 0.00 88 1010.2
20260509060008 23 0.0 0.0 0.00 0.03 0.00 88 1010.2
20260509055510 23 0.0 0.0 0.00 0.03 0.00 88 1010.2
20260509055009 23 0.0 0.0 0.00 0.03 0.00 88 1010.3
20260509054522 23 0.0 0.0 0.00 0.03 0.00 88 1010.3
20260509054012 23 0.0 0.0 0.00 0.03 0.00 88 1010.3
20260509053507 23 0.0 0.0 0.00 0.03 0.00 88 1010.3
20260509053024 23 0.0 0.0 0.00 0.03 0.00 88 1010.3
20260509052513 23 0.0 0.0 0.00 0.03 0.00 88 1010.3
20260509052002 23 0.0 0.0 0.00 0.03 0.00 88 1010.3
20260509051507 23 0.0 0.0 0.00 0.03 0.00 88 1010.3
20260509051005 23 0.0 0.0 0.00 0.03 0.00 88 1010.2
20260509050502 23 0.0 0.0 0.00 0.03 0.00 88 1010.2
20260509050015 23 0.0 0.0 0.00 0.03 0.00 88 1010.2
20260509045502 23 0.0 0.0 0.00 0.03 0.03 88 1010.2
20260509045005 23 0.0 0.0 0.00 0.03 0.03 88 1010.3
20260509044509 23 0.0 0.0 0.00 0.03 0.03 88 1010.3
20260509044011 23 0.0 0.0 0.00 0.03 0.03 88 1010.3